[[{"header":{"parameterUnit":"m.s-1","parameterCategory":1,"la1":30.2991,"la2":30.254,"lo1":-89.0895,"lo2":-89.0444,"dy":0.0017,"dx":0.0017,"nx":28,"ny":28,"refTime":"2023-08-26T21:00:00:Z","depth":0,"parameterNumber":2,"parameterNumberName":"U-component_of_WINDS"},"data":[0,0,0,0,0,0,0,0,0,0,0,0,0,0,0,0,0,0,0,0,0,0,0,0,0,0,0,0,0,0,0,0,0,0,0,0,0,0,0,0,0,0,0,0,0,0,0,0,0,0,0,0,0,0,0,0,0,0,1.8813,1.8814,0,1.8868,1.8868,1.8869,1.887,1.887,1.8869,1.8868,1.892,1.8922,1.8924,0,0,0,0,0,0,0,0,0,0,0,0,0,1.8708,1.871,1.8813,1.8814,1.8815,1.8867,1.8868,1.8869,1.887,1.887,1.8869,1.8868,1.892,1.8922,1.8924,0,0,0,0,0,0,0,0,0,0,0,0,0,1.8757,1.8711,1.8813,1.8822,1.8823,1.8867,1.8868,1.8869,1.8871,1.887,1.8869,1.8868,1.8919,1.8922,1.8925,1.8962,0,0,1.8934,1.8935,0,0,0,0,0,0,0,0,1.8754,1.8761,1.882,1.8821,1.8823,1.8861,1.885,1.89,1.8871,1.8853,1.8868,1.8867,1.8901,1.8905,1.8918,1.8965,1.8967,1.8934,1.8936,1.8937,1.8938,0,0,0,0,0,0,0,1.8751,1.8759,1.8835,1.8821,1.8823,1.8822,1.8828,1.886,1.8881,1.8854,1.8854,1.8861,1.8902,1.8915,1.8919,1.8968,1.8934,1.8936,1.8938,1.8939,1.9049,1.905,0,0,0,0,0,0,1.8746,1.8756,1.8833,1.8836,1.8786,1.8825,1.8831,1.885,1.8881,1.8885,1.8862,1.8861,1.891,1.8915,1.8921,1.8967,1.8937,1.894,1.8941,1.9047,1.9049,1.905,0,0,0,0,0,0,1.8744,1.8753,1.8831,1.8796,1.8806,1.8828,1.8848,1.8851,1.8865,1.8887,1.8891,1.8871,1.891,1.8916,1.8952,1.8969,1.8941,1.8944,1.9046,1.9048,1.9049,1.9059,0,0,0,0,0,0,1.8741,1.8752,1.8768,1.8797,1.8808,1.8862,1.8849,1.8853,1.887,1.8869,1.8897,1.89,1.8909,1.8948,1.8955,1.8972,1.8946,1.9045,1.9047,1.9049,1.9057,1.9061,1.9064,0,0,0,0,0,1.8737,1.8767,1.8768,1.8778,1.8828,1.8863,1.8869,1.888,1.8871,1.8886,1.8901,1.89,1.8966,1.8951,1.896,1.8978,1.9044,1.9046,1.9049,1.9056,1.906,1.9064,0,0,0,0,0,0,1.8738,1.8771,1.8773,1.8813,1.8836,1.8863,1.8882,1.8884,1.8909,1.8907,1.8918,1.8924,1.896,1.8973,1.8956,1.9016,1.9004,1.9008,1.9006,1.9011,1.9014,1.9009,1.8949,0,0,0,0,0,1.8743,1.877,1.8798,1.8831,1.8842,1.8861,1.8876,1.8883,1.8906,1.8915,1.8932,1.8954,1.8979,1.8996,1.9021,1.906,1.9065,1.9076,1.908,1.9082,1.9085,1.9107,1.9112,1.9058,1.9058,1.9058,0,0,1.8753,1.8775,1.8791,1.8831,1.8849,1.8876,1.8868,1.8897,1.8917,1.8919,1.8954,1.8968,1.8992,1.903,1.9047,1.9041,1.9102,1.9086,1.9087,1.9089,1.911,1.9115,1.9119,1.906,1.906,1.9059,0,0,1.8786,1.8805,1.8835,1.8854,1.8882,1.8894,1.8901,1.893,1.8939,1.8975,1.8977,1.9,1.9044,1.9062,1.9077,1.9117,1.9117,1.9125,1.9142,1.9162,1.9167,1.917,1.9184,1.9189,1.9128,1.9129,1.9129,0,1.8794,1.8836,1.885,1.8879,1.8896,1.8901,1.8931,1.8948,1.8982,1.8994,1.8987,1.9043,1.906,1.9102,1.9112,1.9124,1.9132,1.9121,1.9165,1.9169,1.9173,1.9186,1.9191,1.9129,1.9129,1.9129,1.9129,0,1.8845,1.8875,1.8895,1.893,1.8949,1.8979,1.8995,1.9014,1.9019,1.9032,1.9068,1.9089,1.9118,1.9129,1.9134,1.9172,1.9167,1.9163,1.915,1.9178,1.9191,1.9196,1.913,1.913,1.913,1.913,0,0,1.8878,1.8921,1.8928,1.8944,1.8976,1.8998,1.9028,1.9058,1.9073,1.9097,1.9121,1.9159,1.9156,1.9173,1.918,1.9198,1.9228,1.9192,1.9192,1.9197,1.927,1.9273,1.9278,1.9229,1.923,1.9231,1.9268,0,1.8913,1.8967,1.898,1.9025,1.9052,1.9058,1.9084,1.9106,1.9119,1.9143,1.9157,1.9183,1.9177,1.9187,1.9206,1.9221,1.9243,1.9218,1.925,1.9251,1.9243,1.9285,1.9287,1.9321,1.9273,1.9274,1.9275,0,1.8961,1.8987,1.9036,1.9065,1.9077,1.91,1.9129,1.9152,1.9177,1.9185,1.9204,1.921,1.924,1.9227,1.9269,1.9251,1.9266,1.9275,1.9277,1.9279,1.9264,1.9287,1.9333,1.9337,1.9283,1.9282,1.9281,0,1.8979,1.9026,1.9062,1.9075,1.911,1.9126,1.9142,1.9166,1.9183,1.9208,1.922,1.9248,1.9262,1.9283,1.9296,1.9286,1.9336,1.9324,1.9343,1.9342,1.9352,1.9351,1.9399,1.9363,1.9363,1.9363,1.9363,0,1.9016,1.9045,1.907,1.9092,1.9125,1.914,1.9171,1.9186,1.9208,1.9232,1.9239,1.9261,1.9277,1.9301,1.9311,1.9343,1.935,1.9357,1.9359,1.9356,1.9355,1.9364,1.9361,1.9364,1.9364,1.9363,1.9363,0,1.9041,1.9059,1.9098,1.9129,1.9137,1.916,1.9186,1.9206,1.922,1.925,1.9258,1.928,1.9308,1.9324,1.9359,1.9366,1.9402,1.9403,1.9394,1.9395,1.9412,1.9409,1.9466,1.9474,1.9434,1.9434,1.9435,0,1.9062,1.9085,1.9119,1.9136,1.9152,1.918,1.9198,1.9214,1.9233,1.9264,1.928,1.931,1.9334,1.938,1.9398,1.9425,1.9426,1.9445,1.943,1.9426,1.9426,1.9424,1.9426,1.9446,1.9447,1.9447,1.9447,0,1.9099,1.9107,1.9134,1.9165,1.9187,1.9211,1.9235,1.9248,1.9268,1.9288,1.9319,1.9338,1.9375,1.9404,1.9433,1.9448,1.945,1.9452,1.9458,1.9454,1.9447,1.945,1.94,1.945,1.945,1.945,1.945,1.9449,1.9122,1.9143,1.917,1.92,1.922,1.9243,1.9264,1.9281,1.9307,1.934,1.9347,1.9379,1.9404,1.9443,1.9459,1.9483,1.948,1.9488,1.949,1.9491,1.9491,1.9444,1.9489,1.9489,1.9489,1.9489,1.9489,0,1.9158,1.9177,1.9204,1.9238,1.9262,1.9265,1.9291,1.931,1.9339,1.9362,1.9387,1.9421,1.945,1.9471,1.95,1.9515,1.9517,1.9522,1.952,1.9524,1.9494,1.9486,1.952,1.952,1.952,1.952,1.952,1.952,1.918,1.9215,1.9227,1.9272,1.929,1.9322,1.9337,1.9357,1.9376,1.9415,1.944,1.9454,1.9476,1.9507,1.9533,1.9538,1.9548,1.9553,1.9558,1.9529,1.9526,1.9522,1.9515,1.9555,1.9555,1.9586,1.9586,1.9586]},{"header":{"parameterUnit":"m.s-1","parameterCategory":1,"la1":30.2991,"la2":30.254,"lo1":-89.0895,"lo2":-89.0444,"dy":0.0017,"dx":0.0017,"nx":28,"ny":28,"refTime":"2023-08-26T21:00:00:Z","depth":0,"parameterNumber":3,"parameterNumberName":"V-component_of_WINDS"},"data":[0,0,0,0,0,0,0,0,0,0,0,0,0,0,0,0,0,0,0,0,0,0,0,0,0,0,0,0,0,0,0,0,0,0,0,0,0,0,0,0,0,0,0,0,0,0,0,0,0,0,0,0,0,0,0,0,0,0,-2.3122,-2.3122,0,-2.3107,-2.3107,-2.3106,-2.3101,-2.3101,-2.3101,-2.3101,-2.3083,-2.3082,-2.3082,0,0,0,0,0,0,0,0,0,0,0,0,0,-2.3144,-2.3144,-2.3122,-2.3122,-2.3122,-2.3107,-2.3107,-2.3106,-2.3101,-2.3101,-2.3101,-2.3101,-2.3083,-2.3083,-2.3082,0,0,0,0,0,0,0,0,0,0,0,0,0,-2.3132,-2.3143,-2.3122,-2.3117,-2.3117,-2.3107,-2.3107,-2.3106,-2.3101,-2.3101,-2.3101,-2.3101,-2.3083,-2.3083,-2.3082,-2.3075,0,0,-2.3079,-2.3079,0,0,0,0,0,0,0,0,-2.3133,-2.3131,-2.3118,-2.3118,-2.3117,-2.3106,-2.3108,-2.3096,-2.3101,-2.3107,-2.3101,-2.3101,-2.309,-2.3089,-2.3086,-2.3074,-2.3073,-2.3079,-2.3079,-2.3078,-2.3078,0,0,0,0,0,0,0,-2.3134,-2.3132,-2.3116,-2.3118,-2.3117,-2.3115,-2.3113,-2.3105,-2.3098,-2.3106,-2.3106,-2.3104,-2.309,-2.3087,-2.3085,-2.3073,-2.3079,-2.3078,-2.3078,-2.3078,-2.3053,-2.3053,0,0,0,0,0,0,-2.3136,-2.3133,-2.3116,-2.3115,-2.3125,-2.3115,-2.3113,-2.3109,-2.3098,-2.3097,-2.3104,-2.3104,-2.3088,-2.3086,-2.3085,-2.3075,-2.3078,-2.3078,-2.3077,-2.3053,-2.3053,-2.3053,0,0,0,0,0,0,-2.3136,-2.3134,-2.3117,-2.3124,-2.3122,-2.3114,-2.311,-2.3109,-2.3106,-2.3097,-2.3095,-2.3102,-2.3088,-2.3086,-2.3077,-2.3074,-2.3077,-2.3076,-2.3053,-2.3053,-2.3053,-2.3056,0,0,0,0,0,0,-2.3137,-2.3134,-2.3132,-2.3124,-2.3121,-2.3111,-2.311,-2.3109,-2.3105,-2.3104,-2.3094,-2.3093,-2.3088,-2.3078,-2.3076,-2.3073,-2.3076,-2.3053,-2.3053,-2.3053,-2.3056,-2.3056,-2.3056,0,0,0,0,0,-2.3138,-2.3133,-2.3132,-2.313,-2.3119,-2.3111,-2.3109,-2.3104,-2.3104,-2.3102,-2.3096,-2.3093,-2.3075,-2.3078,-2.3075,-2.3072,-2.3054,-2.3053,-2.3053,-2.3056,-2.3056,-2.3056,0,0,0,0,0,0,-2.3141,-2.3132,-2.3131,-2.3124,-2.3118,-2.311,-2.3106,-2.3104,-2.3097,-2.3097,-2.309,-2.3088,-2.308,-2.3075,-2.3078,-2.3064,-2.3064,-2.3063,-2.3067,-2.3067,-2.3067,-2.3068,-2.3075,0,0,0,0,0,-2.3141,-2.3136,-2.3128,-2.3123,-2.312,-2.3114,-2.311,-2.3107,-2.31,-2.3097,-2.3091,-2.3084,-2.3076,-2.3071,-2.3064,-2.3055,-2.3052,-2.3052,-2.3051,-2.3051,-2.305,-2.3044,-2.3044,-2.3051,-2.3051,-2.3051,0,0,-2.3141,-2.3136,-2.3133,-2.3124,-2.3119,-2.3113,-2.3112,-2.3106,-2.3101,-2.3096,-2.3088,-2.3082,-2.3074,-2.3065,-2.3061,-2.306,-2.3048,-2.3051,-2.3051,-2.305,-2.3044,-2.3043,-2.3043,-2.3051,-2.3051,-2.3051,0,0,-2.3138,-2.3134,-2.3129,-2.3124,-2.3116,-2.3112,-2.3111,-2.3102,-2.3099,-2.3091,-2.3087,-2.308,-2.3068,-2.3062,-2.3057,-2.3051,-2.3047,-2.3048,-2.3047,-2.3041,-2.3041,-2.304,-2.3037,-2.3036,-2.3048,-2.3048,-2.3048,0,-2.3138,-2.313,-2.3126,-2.312,-2.3116,-2.3112,-2.3106,-2.3101,-2.3091,-2.3088,-2.3088,-2.3072,-2.3066,-2.3055,-2.3054,-2.305,-2.3048,-2.3049,-2.3041,-2.3041,-2.304,-2.3037,-2.3036,-2.3048,-2.3048,-2.3048,-2.3048,0,-2.3131,-2.3125,-2.3122,-2.3113,-2.3109,-2.3103,-2.3097,-2.3092,-2.3089,-2.3084,-2.3075,-2.3068,-2.3058,-2.3056,-2.3052,-2.3044,-2.3044,-2.3043,-2.3043,-2.304,-2.3037,-2.3035,-2.3048,-2.3048,-2.3048,-2.3048,0,0,-2.313,-2.3119,-2.3118,-2.3113,-2.3105,-2.31,-2.3093,-2.3085,-2.3081,-2.3074,-2.3067,-2.3057,-2.3056,-2.305,-2.3046,-2.3041,-2.3036,-2.304,-2.304,-2.3039,-2.3025,-2.3025,-2.3024,-2.3034,-2.3033,-2.3033,-2.3025,0,-2.3125,-2.3114,-2.311,-2.3101,-2.3095,-2.3091,-2.3085,-2.3078,-2.3073,-2.3067,-2.3061,-2.3053,-2.3053,-2.3049,-2.3044,-2.3037,-2.3032,-2.3038,-2.3026,-2.3026,-2.3028,-2.3023,-2.3023,-2.3016,-2.3024,-2.3024,-2.3024,0,-2.3118,-2.3112,-2.3102,-2.3094,-2.3091,-2.3086,-2.3078,-2.3072,-2.3064,-2.3061,-2.3054,-2.305,-2.3042,-2.3043,-2.3031,-2.3035,-2.3029,-2.3025,-2.3025,-2.3023,-2.3024,-2.302,-2.3014,-2.3012,-2.3022,-2.3022,-2.3022,0,-2.3117,-2.3107,-2.3099,-2.3096,-2.3086,-2.3082,-2.3078,-2.307,-2.3065,-2.3057,-2.3054,-2.3045,-2.304,-2.3033,-2.3026,-2.3027,-2.3014,-2.3014,-2.301,-2.301,-2.3007,-2.3007,-2.2999,-2.3005,-2.3005,-2.3005,-2.3005,0,-2.3112,-2.3107,-2.3099,-2.3094,-2.3087,-2.3082,-2.3074,-2.3069,-2.3062,-2.3056,-2.3052,-2.3045,-2.3037,-2.3029,-2.3024,-2.3014,-2.3012,-2.3008,-2.3007,-2.3008,-2.3009,-2.3004,-2.3005,-2.3004,-2.3004,-2.3005,-2.3005,0,-2.3111,-2.3105,-2.3097,-2.3088,-2.3086,-2.3081,-2.3073,-2.3068,-2.3063,-2.3054,-2.3052,-2.3044,-2.3034,-2.3027,-2.3015,-2.3011,-2.3,-2.2999,-2.3003,-2.3002,-2.2998,-2.2998,-2.2986,-2.2984,-2.2992,-2.2992,-2.2992,0,-2.3108,-2.3103,-2.3094,-2.309,-2.3086,-2.3079,-2.3074,-2.3068,-2.3063,-2.3053,-2.3048,-2.3039,-2.3031,-2.3016,-2.3008,-2.2998,-2.2996,-2.2993,-2.2994,-2.2996,-2.2995,-2.2995,-2.2994,-2.2992,-2.2992,-2.2992,-2.2992,0,-2.3103,-2.31,-2.3094,-2.3086,-2.3081,-2.3074,-2.3067,-2.3064,-2.3056,-2.305,-2.3041,-2.3035,-2.3023,-2.3013,-2.3002,-2.2996,-2.2992,-2.2992,-2.299,-2.2991,-2.2994,-2.2991,-2.3002,-2.2992,-2.2992,-2.2992,-2.2992,-2.2992,-2.31,-2.3095,-2.3088,-2.3081,-2.3075,-2.3069,-2.3063,-2.3058,-2.305,-2.304,-2.3037,-2.3027,-2.3018,-2.3003,-2.2997,-2.2988,-2.2988,-2.2986,-2.2985,-2.2984,-2.2984,-2.2996,-2.2986,-2.2986,-2.2986,-2.2986,-2.2986,0,-2.3094,-2.3089,-2.3083,-2.3074,-2.3067,-2.3066,-2.3058,-2.3052,-2.3044,-2.3036,-2.3029,-2.3018,-2.3008,-2.2999,-2.2988,-2.2983,-2.2981,-2.298,-2.298,-2.2979,-2.2985,-2.2988,-2.2982,-2.2982,-2.2982,-2.2982,-2.2982,-2.2982,-2.309,-2.3082,-2.3079,-2.3068,-2.3062,-2.3054,-2.3049,-2.3043,-2.3037,-2.3025,-2.3017,-2.3011,-2.3003,-2.2991,-2.2982,-2.2979,-2.2975,-2.2975,-2.2972,-2.2978,-2.2979,-2.2979,-2.2981,-2.2974,-2.2974,-2.2966,-2.2966,-2.2966]}]]